Time,TemperatureF,DewpointF,PressureIn,WindDirection,WindDirectionDegrees,WindSpeedMPH,WindSpeedGustMPH,Humidity,HourlyPrecipIn,Conditions,Clouds,dailyrainin,SoftwareType,DateUTC
2013-07-02 00:00:00,77.1,74.3,30.04,East,86,0.0,1.0,91,0.00,,---,0.15,VWS V15.00,2013-07-02 04:00:00,
2013-07-02 00:01:00,77.0,74.8,30.05,East,86,0.0,0.0,93,0.00,,---,0.15,VWS V14.01,2013-07-02 04:01:00,
2013-07-02 00:02:00,77.0,74.8,30.05,East,86,0.0,0.0,93,0.00,,---,0.00,VWS V14.01,2013-07-02 04:02:00,
2013-07-02 00:03:00,77.0,75.1,30.05,East,86,0.0,0.0,94,0.00,,---,0.00,VWS V14.01,2013-07-02 04:03:00,
2013-07-02 00:05:00,77.0,74.8,30.05,East,86,0.0,0.0,93,0.00,,---,0.00,VWS V14.01,2013-07-02 04:05:00,
2013-07-02 00:10:00,77.2,75.0,30.05,East,86,0.0,0.0,93,0.00,,---,0.00,VWS V14.01,2013-07-02 04:10:00,
2013-07-02 00:11:00,77.2,75.3,30.05,East,86,0.0,0.0,94,0.00,,---,0.00,VWS V14.01,2013-07-02 04:11:00,
2013-07-02 00:15:00,77.0,74.2,30.04,East,86,0.0,0.0,91,0.00,,---,0.15,VWS V15.00,2013-07-02 04:15:00,
2013-07-02 00:16:00,77.4,75.5,30.05,East,86,0.0,0.0,94,0.00,,---,0.00,VWS V14.01,2013-07-02 04:16:00,
2013-07-02 00:21:00,77.4,75.2,30.05,East,86,0.0,0.0,93,0.00,,---,0.00,VWS V14.01,2013-07-02 04:21:00,
2013-07-02 00:26:00,77.5,75.6,30.04,East,86,0.0,0.0,94,0.00,,---,0.00,VWS V14.01,2013-07-02 04:26:00,
2013-07-02 00:30:00,76.9,74.4,30.05,East,86,0.0,0.0,92,0.00,,---,0.15,VWS V15.00,2013-07-02 04:30:00,
2013-07-02 00:32:00,77.5,75.6,30.04,East,86,0.0,0.0,94,0.00,,---,0.00,VWS V14.01,2013-07-02 04:32:00,
2013-07-02 00:37:00,77.5,75.3,30.04,East,86,0.0,0.0,93,0.00,,---,0.00,VWS V14.01,2013-07-02 04:37:00,
2013-07-02 00:42:00,77.5,75.3,30.04,East,86,0.0,0.0,93,0.00,,---,0.00,VWS V14.01,2013-07-02 04:42:00,
2013-07-02 00:45:00,77.0,74.5,30.05,East,86,0.0,0.0,92,0.00,,---,0.15,VWS V15.00,2013-07-02 04:45:00,
2013-07-02 00:47:00,77.5,75.6,30.04,East,86,0.0,0.0,94,0.00,,---,0.00,VWS V14.01,2013-07-02 04:47:00,
2013-07-02 00:52:00,77.5,75.6,30.04,East,86,0.0,0.0,94,0.00,,---,0.00,VWS V14.01,2013-07-02 04:52:00,
2013-07-02 00:57:00,77.5,75.6,30.04,East,86,0.0,0.0,94,0.00,,---,0.00,VWS V14.01,2013-07-02 04:57:00,
2013-07-02 01:00:00,77.0,74.8,30.05,East,86,0.0,0.0,93,0.00,,---,0.15,VWS V15.00,2013-07-02 05:00:00,
2013-07-02 01:02:00,77.6,75.7,30.03,East,86,0.0,0.0,94,0.00,,---,0.00,VWS V14.01,2013-07-02 05:02:00,
2013-07-02 01:07:00,77.6,75.4,30.03,East,86,0.0,1.0,93,0.00,,---,0.00,VWS V14.01,2013-07-02 05:07:00,
2013-07-02 01:12:00,77.7,75.5,30.03,East,86,0.0,1.0,93,0.00,,---,0.00,VWS V14.01,2013-07-02 05:12:00,
2013-07-02 01:15:00,77.4,75.5,30.05,East,86,0.0,0.0,94,0.00,,---,0.00,VWS V15.00,2013-07-02 05:15:00,
2013-07-02 01:17:00,77.7,75.5,30.03,East,86,0.0,0.0,93,0.00,,---,0.00,VWS V14.01,2013-07-02 05:17:00,
2013-07-02 01:22:00,77.8,75.6,30.03,East,86,0.0,0.0,93,0.00,,---,0.00,VWS V14.01,2013-07-02 05:22:00,
2013-07-02 01:27:00,77.8,75.6,30.03,East,86,0.0,1.0,93,0.00,,---,0.00,VWS V14.01,2013-07-02 05:27:00,
2013-07-02 01:30:00,77.5,75.6,30.04,East,86,0.0,0.0,94,0.00,,---,0.00,VWS V15.00,2013-07-02 05:30:00,
2013-07-02 01:32:00,77.8,75.9,30.03,East,86,0.0,0.0,94,0.00,,---,0.00,VWS V14.01,2013-07-02 05:32:00,
2013-07-02 01:37:00,77.8,75.9,30.03,East,86,0.0,1.0,94,0.00,,---,0.00,VWS V14.01,2013-07-02 05:37:00,
2013-07-02 01:42:00,77.7,75.8,30.03,East,86,0.0,1.0,94,0.00,,---,0.00,VWS V14.01,2013-07-02 05:42:00,
2013-07-02 01:45:00,77.5,75.6,30.04,East,86,0.0,0.0,94,0.00,,---,0.00,VWS V15.00,2013-07-02 05:45:00,
2013-07-02 01:47:00,77.7,75.8,30.02,East,86,0.0,0.0,94,0.00,,---,0.00,VWS V14.01,2013-07-02 05:47:00,
2013-07-02 01:52:00,77.7,75.8,30.02,East,86,0.0,1.0,94,0.00,,---,0.00,VWS V14.01,2013-07-02 05:52:00,
2013-07-02 01:57:00,77.7,75.8,30.02,East,86,0.0,1.0,94,0.00,,---,0.00,VWS V14.01,2013-07-02 05:57:00,
2013-07-02 02:00:00,77.6,75.7,30.03,East,86,0.0,0.0,94,0.00,,---,0.00,VWS V15.00,2013-07-02 06:00:00,
2013-07-02 02:02:00,77.7,75.5,30.01,East,86,0.0,0.0,93,0.00,,---,0.00,VWS V14.01,2013-07-02 06:02:00,
2013-07-02 02:07:00,77.7,75.5,30.01,East,86,0.0,1.0,93,0.00,,---,0.00,VWS V14.01,2013-07-02 06:07:00,
2013-07-02 02:12:00,77.8,75.6,30.01,East,86,1.0,1.0,93,0.00,,---,0.00,VWS V14.01,2013-07-02 06:12:00,
2013-07-02 02:15:00,77.7,75.5,30.03,East,86,0.0,1.0,93,0.00,,---,0.00,VWS V15.00,2013-07-02 06:15:00,
2013-07-02 02:17:00,78.0,75.8,30.01,East,86,0.0,0.0,93,0.00,,---,0.00,VWS V14.01,2013-07-02 06:17:00,
2013-07-02 02:22:00,78.1,75.9,30.01,East,86,1.0,1.0,93,0.00,,---,0.00,VWS V14.01,2013-07-02 06:22:00,
2013-07-02 02:27:00,78.1,75.9,30.00,East,86,0.0,1.0,93,0.00,,---,0.00,VWS V14.01,2013-07-02 06:27:00,
2013-07-02 02:30:00,77.8,75.9,30.03,East,86,0.0,1.0,94,0.00,,---,0.00,VWS V15.00,2013-07-02 06:30:00,
2013-07-02 02:32:00,78.3,76.1,30.01,East,86,0.0,0.0,93,0.00,,---,0.00,VWS V14.01,2013-07-02 06:32:00,
2013-07-02 02:37:00,78.5,76.3,30.00,East,86,0.0,1.0,93,0.00,,---,0.00,VWS V14.01,2013-07-02 06:37:00,
2013-07-02 02:42:00,78.6,76.4,30.00,East,86,0.0,1.0,93,0.00,,---,0.00,VWS V14.01,2013-07-02 06:42:00,
2013-07-02 02:45:00,77.8,75.9,30.03,East,86,0.0,1.0,94,0.00,,---,0.00,VWS V15.00,2013-07-02 06:45:00,
2013-07-02 02:47:00,78.7,76.5,30.00,East,86,0.0,0.0,93,0.00,,---,0.00,VWS V14.01,2013-07-02 06:47:00,
2013-07-02 02:52:00,78.8,76.9,30.00,East,86,0.0,1.0,94,0.00,,---,0.00,VWS V14.01,2013-07-02 06:52:00,
2013-07-02 02:57:00,79.0,77.1,30.00,SE,144,1.0,1.0,94,0.00,,---,0.00,VWS V14.01,2013-07-02 06:57:00,
2013-07-02 03:00:00,77.7,75.5,30.02,East,86,0.0,1.0,93,0.00,,---,0.00,VWS V15.00,2013-07-02 07:00:00,
2013-07-02 03:02:00,79.1,77.2,30.00,SE,142,1.0,2.0,94,0.00,,---,0.00,VWS V14.01,2013-07-02 07:02:00,
2013-07-02 03:07:00,79.3,77.4,30.00,SSE,163,0.0,4.0,94,0.00,,---,0.00,VWS V14.01,2013-07-02 07:07:00,
2013-07-02 03:12:00,79.3,77.4,30.00,SSE,148,2.0,4.0,94,0.00,,---,0.00,VWS V14.01,2013-07-02 07:12:00,
2013-07-02 03:15:00,78.0,75.8,30.01,East,86,0.0,1.0,93,0.00,,---,0.00,VWS V15.00,2013-07-02 07:15:00,
2013-07-02 03:17:00,79.3,77.4,30.00,SE,143,0.0,2.0,94,0.00,,---,0.00,VWS V14.01,2013-07-02 07:17:00,
2013-07-02 03:23:00,79.4,77.5,30.00,SSE,156,1.0,4.0,94,0.00,,---,0.00,VWS V14.01,2013-07-02 07:23:00,
2013-07-02 03:28:00,79.4,76.6,30.00,SE,143,1.0,5.0,91,0.00,,---,0.00,VWS V14.01,2013-07-02 07:28:00,
2013-07-02 03:30:00,78.2,76.0,30.01,East,86,0.0,1.0,93,0.00,,---,0.00,VWS V15.00,2013-07-02 07:30:00,
2013-07-02 03:33:00,79.4,76.6,30.00,SE,134,3.0,3.0,91,0.00,,---,0.00,VWS V14.01,2013-07-02 07:33:00,
2013-07-02 03:38:00,79.3,75.8,30.00,SE,129,2.0,4.0,89,0.00,,---,0.00,VWS V14.01,2013-07-02 07:38:00,
2013-07-02 03:43:00,79.2,75.3,30.00,South,178,0.0,4.0,88,0.00,,---,0.00,VWS V14.01,2013-07-02 07:43:00,
2013-07-02 03:45:00,78.7,76.5,30.00,East,86,0.0,1.0,93,0.00,,---,0.00,VWS V15.00,2013-07-02 07:45:00,
2013-07-02 03:48:00,79.1,75.2,30.00,SE,143,0.0,2.0,88,0.00,,---,0.00,VWS V14.01,2013-07-02 07:48:00,
2013-07-02 03:53:00,78.8,74.9,30.00,SSE,150,0.0,2.0,88,0.00,,---,0.00,VWS V14.01,2013-07-02 07:53:00,
2013-07-02 03:58:00,78.6,75.1,29.99,SSE,150,0.0,2.0,89,0.00,,---,0.00,VWS V14.01,2013-07-02 07:58:00,
2013-07-02 04:00:00,79.0,77.1,30.00,ESE,113,0.0,3.0,94,0.00,,---,0.00,VWS V15.00,2013-07-02 08:00:00,
2013-07-02 04:03:00,78.5,75.0,30.00,SSE,150,0.0,0.0,89,0.00,,---,0.00,VWS V14.01,2013-07-02 08:03:00,
2013-07-02 04:08:00,78.4,75.6,30.00,SSE,150,0.0,0.0,91,0.00,,---,0.00,VWS V14.01,2013-07-02 08:08:00,
2013-07-02 04:13:00,78.2,74.7,29.99,SSE,152,1.0,2.0,89,0.00,,---,0.00,VWS V14.01,2013-07-02 08:13:00,
2013-07-02 04:15:00,79.3,77.4,30.00,SE,135,1.0,4.0,94,0.00,,---,0.00,VWS V15.00,2013-07-02 08:15:00,
2013-07-02 04:18:00,78.1,74.6,29.99,SE,132,1.0,1.0,89,0.00,,---,0.00,VWS V14.01,2013-07-02 08:18:00,
2013-07-02 04:23:00,78.1,74.3,29.99,SE,124,1.0,2.0,88,0.00,,---,0.00,VWS V14.01,2013-07-02 08:23:00,
2013-07-02 04:28:00,78.0,74.2,29.99,ESE,121,0.0,2.0,88,0.00,,---,0.00,VWS V14.01,2013-07-02 08:28:00,
2013-07-02 04:30:00,79.4,76.6,30.00,SSE,153,1.0,5.0,91,0.00,,---,0.00,VWS V15.00,2013-07-02 08:30:00,
2013-07-02 04:33:00,78.0,74.2,29.99,ESE,122,0.0,0.0,88,0.00,,---,0.00,VWS V14.01,2013-07-02 08:33:00,
2013-07-02 04:38:00,78.0,74.2,29.99,ESE,122,0.0,1.0,88,0.00,,---,0.00,VWS V14.01,2013-07-02 08:38:00,
2013-07-02 04:43:00,77.9,74.1,29.99,ESE,121,0.0,1.0,88,0.00,,---,0.00,VWS V14.01,2013-07-02 08:43:00,
2013-07-02 04:45:00,79.1,75.2,30.00,SSE,165,0.0,4.0,88,0.00,,---,0.00,VWS V15.00,2013-07-02 08:45:00,
2013-07-02 04:48:00,77.9,74.1,29.98,ESE,122,0.0,1.0,88,0.00,,---,0.00,VWS V14.01,2013-07-02 08:48:00,
2013-07-02 04:53:00,78.0,74.5,29.99,ESE,122,1.0,1.0,89,0.00,,---,0.00,VWS V14.01,2013-07-02 08:53:00,
2013-07-02 04:58:00,78.0,74.5,29.99,SSE,148,0.0,2.0,89,0.00,,---,0.00,VWS V14.01,2013-07-02 08:58:00,
2013-07-02 05:00:00,78.5,75.0,30.00,SSE,150,0.0,2.0,89,0.00,,---,0.00,VWS V15.00,2013-07-02 09:00:00,
2013-07-02 05:03:00,78.0,74.8,29.99,SE,142,0.0,0.0,90,0.00,,---,0.00,VWS V14.01,2013-07-02 09:03:00,
2013-07-02 05:08:00,78.0,74.8,29.99,SE,131,1.0,2.0,90,0.00,,---,0.00,VWS V14.01,2013-07-02 09:08:00,
2013-07-02 05:13:00,78.1,75.3,29.99,SE,129,0.0,2.0,91,0.00,,---,0.00,VWS V14.01,2013-07-02 09:13:00,
2013-07-02 05:15:00,78.2,74.7,29.99,SE,126,1.0,2.0,89,0.00,,---,0.00,VWS V15.00,2013-07-02 09:15:00,
2013-07-02 05:18:00,78.1,75.3,29.99,SE,129,0.0,0.0,91,0.00,,---,0.00,VWS V14.01,2013-07-02 09:18:00,
2013-07-02 05:23:00,78.2,75.4,29.99,SE,129,0.0,1.0,91,0.00,,---,0.00,VWS V14.01,2013-07-02 09:23:00,
2013-07-02 05:28:00,78.3,75.5,29.99,SE,126,0.0,2.0,91,0.00,,---,0.00,VWS V14.01,2013-07-02 09:28:00,
2013-07-02 05:30:00,78.0,74.2,29.99,ESE,122,0.0,2.0,88,0.00,,---,0.00,VWS V15.00,2013-07-02 09:30:00,
2013-07-02 05:33:00,78.3,75.8,29.99,SE,126,0.0,1.0,92,0.00,,---,0.00,VWS V14.01,2013-07-02 09:33:00,
2013-07-02 05:38:00,78.8,76.6,30.00,SE,138,2.0,4.0,93,0.00,,---,0.00,VWS V14.01,2013-07-02 09:38:00,
2013-07-02 05:43:00,79.4,76.9,30.00,SSE,167,2.0,4.0,92,0.00,,---,0.00,VWS V14.01,2013-07-02 09:43:00,
2013-07-02 05:45:00,77.9,74.1,29.99,ESE,122,0.0,2.0,88,0.00,,---,0.00,VWS V15.00,2013-07-02 09:45:00,
2013-07-02 05:48:00,80.0,77.1,30.00,ESE,111,1.0,3.0,91,0.00,,---,0.00,VWS V14.01,2013-07-02 09:48:00,
2013-07-02 05:53:00,80.5,77.3,30.00,ESE,103,4.0,5.0,90,0.00,,---,0.00,VWS V14.01,2013-07-02 09:53:00,
2013-07-02 05:58:00,80.9,77.7,30.00,South,174,2.0,6.0,90,0.00,,---,0.00,VWS V14.01,2013-07-02 09:58:00,
2013-07-02 06:00:00,78.0,74.5,29.99,SE,143,0.0,2.0,89,0.00,,---,0.00,VWS V15.00,2013-07-02 10:00:00,
2013-07-02 06:03:00,81.1,77.6,30.00,ESE,108,3.0,6.0,89,0.00,,---,0.00,VWS V14.01,2013-07-02 10:03:00,
2013-07-02 06:08:00,81.3,77.4,30.00,ESE,102,5.0,6.0,88,0.00,,---,0.00,VWS V14.01,2013-07-02 10:08:00,
2013-07-02 06:13:00,81.4,77.5,30.00,SE,134,3.0,8.0,88,0.00,,---,0.00,VWS V14.01,2013-07-02 10:13:00,
2013-07-02 06:15:00,78.1,75.3,29.99,SE,129,0.0,2.0,91,0.00,,---,0.00,VWS V15.00,2013-07-02 10:15:00,
2013-07-02 06:18:00,81.5,77.6,30.00,SE,139,1.0,8.0,88,0.00,,---,0.00,VWS V14.01,2013-07-02 10:18:00,
2013-07-02 06:24:00,81.6,77.4,30.01,SSE,148,4.0,8.0,87,0.00,,---,0.00,VWS V14.01,2013-07-02 10:24:00,
2013-07-02 06:29:00,81.7,77.5,30.01,SSE,158,8.0,8.0,87,0.00,,---,0.00,VWS V14.01,2013-07-02 10:29:00,
2013-07-02 06:30:00,78.3,75.8,29.99,SE,126,0.0,2.0,92,0.00,,---,0.00,VWS V15.00,2013-07-02 10:30:00,
2013-07-02 06:34:00,81.8,77.6,30.01,ESE,119,3.0,8.0,87,0.00,,---,0.00,VWS V14.01,2013-07-02 10:34:00,
2013-07-02 06:39:00,81.8,77.6,30.01,ESE,113,4.0,8.0,87,0.00,,---,0.00,VWS V14.01,2013-07-02 10:39:00,
2013-07-02 06:44:00,81.8,77.6,30.01,South,172,5.0,8.0,87,0.00,,---,0.00,VWS V14.01,2013-07-02 10:44:00,
2013-07-02 06:45:00,79.7,77.2,30.00,SE,133,1.0,5.0,92,0.00,,---,0.00,VWS V15.00,2013-07-02 10:45:00,
2013-07-02 06:49:00,81.8,77.6,30.01,SE,131,3.0,7.0,87,0.00,,---,0.00,VWS V14.01,2013-07-02 10:49:00,
2013-07-02 06:54:00,81.8,77.6,30.02,SSE,167,4.0,7.0,87,0.00,,---,0.00,VWS V14.01,2013-07-02 10:54:00,
2013-07-02 06:59:00,82.0,77.8,30.02,SSE,155,2.0,7.0,87,0.00,,---,0.00,VWS V14.01,2013-07-02 10:59:00,
2013-07-02 07:00:00,81.0,77.5,30.00,SE,126,1.0,6.0,89,0.00,,---,0.00,VWS V15.00,2013-07-02 11:00:00,
2013-07-02 07:04:00,81.9,77.3,30.02,SE,133,2.0,4.0,86,0.00,,---,0.00,VWS V14.01,2013-07-02 11:04:00,
2013-07-02 07:09:00,82.0,77.4,30.02,ESE,113,1.0,4.0,86,0.00,,---,0.00,VWS V14.01,2013-07-02 11:09:00,
2013-07-02 07:14:00,82.0,77.4,30.02,SSE,161,2.0,4.0,86,0.00,,---,0.00,VWS V14.01,2013-07-02 11:14:00,
2013-07-02 07:15:00,81.5,77.6,30.00,SE,136,2.0,8.0,88,0.00,,---,0.00,VWS V15.00,2013-07-02 11:15:00,
2013-07-02 07:19:00,82.1,77.5,30.03,South,170,2.0,6.0,86,0.00,,---,0.00,VWS V14.01,2013-07-02 11:19:00,
2013-07-02 07:24:00,82.2,77.6,30.03,SE,124,4.0,6.0,86,0.00,,---,0.00,VWS V14.01,2013-07-02 11:24:00,
2013-07-02 07:29:00,82.3,77.7,30.03,SE,141,1.0,6.0,86,0.00,,---,0.00,VWS V14.01,2013-07-02 11:29:00,
2013-07-02 07:30:00,81.8,77.6,30.01,ESE,103,5.0,8.0,87,0.00,,---,0.00,VWS V15.00,2013-07-02 11:30:00,
2013-07-02 07:34:00,82.5,77.9,30.03,SSE,158,2.0,6.0,86,0.00,,---,0.00,VWS V14.01,2013-07-02 11:34:00,
2013-07-02 07:39:00,83.2,77.9,30.03,SE,136,3.0,6.0,84,0.00,,---,0.00,VWS V14.01,2013-07-02 11:39:00,
2013-07-02 07:44:00,83.7,78.3,30.03,ESE,122,1.0,6.0,84,0.00,,---,0.00,VWS V14.01,2013-07-02 11:44:00,
2013-07-02 07:45:00,81.8,77.6,30.01,SE,146,2.0,8.0,87,0.00,,---,0.00,VWS V15.00,2013-07-02 11:45:00,
2013-07-02 07:49:00,83.6,78.3,30.03,SSW,197,3.0,5.0,84,0.00,,---,0.00,VWS V14.01,2013-07-02 11:49:00,
2013-07-02 07:54:00,83.6,78.3,30.03,SE,140,1.0,5.0,84,0.00,,---,0.00,VWS V14.01,2013-07-02 11:54:00,
2013-07-02 07:59:00,83.6,77.9,30.03,East,99,1.0,5.0,83,0.00,,---,0.00,VWS V14.01,2013-07-02 11:59:00,
2013-07-02 08:00:00,81.9,77.7,30.02,SSE,155,2.0,7.0,87,0.00,,---,0.00,VWS V15.00,2013-07-02 12:00:00,
2013-07-02 08:04:00,83.8,78.1,30.03,SE,128,0.0,3.0,83,0.00,,---,0.00,VWS V14.01,2013-07-02 12:04:00,
2013-07-02 08:09:00,83.9,78.6,30.04,SSE,156,1.0,5.0,84,0.00,,---,0.00,VWS V14.01,2013-07-02 12:09:00,
2013-07-02 08:14:00,83.9,78.2,30.04,SE,139,4.0,8.0,83,0.00,,---,0.00,VWS V14.01,2013-07-02 12:14:00,
2013-07-02 08:15:00,82.0,77.4,30.02,SE,131,0.0,4.0,86,0.00,,---,0.00,VWS V15.00,2013-07-02 12:15:00,
2013-07-02 08:19:00,83.8,78.1,30.05,SE,132,3.0,7.0,83,0.00,,---,0.00,VWS V14.01,2013-07-02 12:19:00,
2013-07-02 08:24:00,83.8,78.4,30.05,SE,139,2.0,7.0,84,0.00,,---,0.00,VWS V14.01,2013-07-02 12:24:00,
2013-07-02 08:29:00,83.8,78.1,30.04,SE,142,3.0,7.0,83,0.00,,---,0.00,VWS V14.01,2013-07-02 12:29:00,
2013-07-02 08:30:00,82.4,77.8,30.03,SSE,167,1.0,6.0,86,0.00,,---,0.00,VWS V15.00,2013-07-02 12:30:00,
2013-07-02 08:34:00,83.9,78.2,30.05,SE,134,3.0,5.0,83,0.00,,---,0.00,VWS V14.01,2013-07-02 12:34:00,
2013-07-02 08:39:00,84.0,78.3,30.05,SE,143,2.0,5.0,83,0.00,,---,0.00,VWS V14.01,2013-07-02 12:39:00,
2013-07-02 08:44:00,84.1,78.0,30.05,SSE,167,2.0,7.0,82,0.00,,---,0.00,VWS V14.01,2013-07-02 12:44:00,
2013-07-02 08:45:00,83.6,78.3,30.03,SE,124,1.0,6.0,84,0.00,,---,0.00,VWS V15.00,2013-07-02 12:45:00,
2013-07-02 08:49:00,84.1,78.4,30.05,SSE,149,3.0,5.0,83,0.00,,---,0.00,VWS V14.01,2013-07-02 12:49:00,
2013-07-02 08:54:00,84.1,78.0,30.05,ESE,110,3.0,7.0,82,0.00,,---,0.00,VWS V14.01,2013-07-02 12:54:00,
2013-07-02 08:59:00,84.1,77.6,30.05,SSE,157,6.0,12.0,81,0.00,,---,0.00,VWS V14.01,2013-07-02 12:59:00,
2013-07-02 09:00:00,83.7,78.0,30.03,SE,146,2.0,5.0,83,0.00,,---,0.00,VWS V15.00,2013-07-02 13:00:00,
2013-07-02 09:04:00,84.2,77.7,30.05,ESE,105,3.0,9.0,81,0.00,,---,0.00,VWS V14.01,2013-07-02 13:04:00,
2013-07-02 09:09:00,84.2,77.4,30.05,SSE,167,7.0,14.0,80,0.00,,---,0.00,VWS V14.01,2013-07-02 13:09:00,
2013-07-02 09:15:00,84.3,77.5,30.05,SSE,148,2.0,14.0,80,0.00,,---,0.00,VWS V14.01,2013-07-02 13:15:00,
2013-07-02 09:20:00,84.5,77.7,30.06,SE,131,5.0,11.0,80,0.00,,---,0.00,VWS V14.01,2013-07-02 13:20:00,
2013-07-02 09:25:00,84.7,77.8,30.05,SE,127,3.0,11.0,80,0.00,,---,0.00,VWS V14.01,2013-07-02 13:25:00,
2013-07-02 09:30:00,85.2,77.9,30.05,SSE,150,2.0,11.0,79,0.00,,---,0.00,VWS V14.01,2013-07-02 13:30:00,
2013-07-02 09:35:00,85.4,78.2,30.05,South,180,6.0,9.0,79,0.00,,---,0.00,VWS V14.01,2013-07-02 13:35:00,
2013-07-02 09:40:00,85.4,77.8,30.06,WSW,243,5.0,12.0,78,0.00,,---,0.00,VWS V14.01,2013-07-02 13:40:00,
2013-07-02 09:45:00,85.4,77.4,30.06,SE,131,7.0,12.0,77,0.00,,---,0.00,VWS V14.01,2013-07-02 13:45:00,
2013-07-02 09:50:00,85.1,77.5,30.06,SW,217,4.0,12.0,78,0.00,,---,0.00,VWS V14.01,2013-07-02 13:50:00,
2013-07-02 09:55:00,85.0,77.8,30.06,SSE,151,6.0,12.0,79,0.00,,---,0.00,VWS V14.01,2013-07-02 13:55:00,
2013-07-02 10:00:00,84.8,77.6,30.06,SSE,158,6.0,12.0,79,0.00,,---,0.00,VWS V14.01,2013-07-02 14:00:00,
2013-07-02 10:05:00,84.7,77.5,30.06,SE,141,5.0,13.0,79,0.00,,---,0.00,VWS V14.01,2013-07-02 14:05:00,
2013-07-02 10:10:00,84.8,77.6,30.07,SE,141,7.0,13.0,79,0.00,,---,0.00,VWS V14.01,2013-07-02 14:10:00,
2013-07-02 10:15:00,85.3,78.1,30.07,ESE,120,5.0,13.0,79,0.00,,---,0.00,VWS V14.01,2013-07-02 14:15:00,
2013-07-02 10:20:00,85.4,77.8,30.07,SE,146,3.0,13.0,78,0.00,,---,0.00,VWS V14.01,2013-07-02 14:20:00,
2013-07-02 10:25:00,85.5,77.5,30.07,East,79,5.0,13.0,77,0.00,,---,0.00,VWS V14.01,2013-07-02 14:25:00,
2013-07-02 10:30:00,85.7,77.7,30.07,SSE,150,6.0,13.0,77,0.00,,---,0.00,VWS V14.01,2013-07-02 14:30:00,
2013-07-02 10:35:00,85.8,77.8,30.07,SW,226,7.0,8.0,77,0.00,,---,0.00,VWS V14.01,2013-07-02 14:35:00,
2013-07-02 10:40:00,86.1,77.7,30.06,SE,142,3.0,11.0,76,0.00,,---,0.00,VWS V14.01,2013-07-02 14:40:00,
2013-07-02 10:45:00,86.1,77.7,30.06,SE,146,4.0,11.0,76,0.00,,---,0.00,VWS V14.01,2013-07-02 14:45:00,
2013-07-02 10:50:00,86.2,77.3,30.06,SE,138,4.0,12.0,75,0.00,,---,0.00,VWS V14.01,2013-07-02 14:50:00,
2013-07-02 10:55:00,87.0,77.7,30.06,SE,133,6.0,12.0,74,0.00,,---,0.00,VWS V14.01,2013-07-02 14:55:00,
2013-07-02 11:00:00,87.6,77.0,30.06,SSE,153,8.0,13.0,71,0.00,,---,0.00,VWS V14.01,2013-07-02 15:00:00,
2013-07-02 11:05:00,88.0,77.0,30.06,ESE,105,6.0,12.0,70,0.00,,---,0.00,VWS V14.01,2013-07-02 15:05:00,
2013-07-02 11:10:00,88.1,77.1,30.06,ESE,120,10.0,13.0,70,0.00,,---,0.00,VWS V14.01,2013-07-02 15:10:00,
2013-07-02 11:15:00,88.3,78.1,30.06,SSE,158,6.0,13.0,72,0.00,,---,0.00,VWS V14.01,2013-07-02 15:15:00,
2013-07-02 11:20:00,88.8,77.8,30.06,WNW,293,4.0,10.0,70,0.00,,---,0.00,VWS V14.01,2013-07-02 15:20:00,
2013-07-02 11:25:00,88.7,77.7,30.06,SE,141,3.0,13.0,70,0.00,,---,0.00,VWS V14.01,2013-07-02 15:25:00,
2013-07-02 11:30:00,88.7,76.8,30.06,SSE,150,5.0,13.0,68,0.00,,---,0.00,VWS V14.01,2013-07-02 15:30:00,
2013-07-02 11:35:00,89.2,76.4,30.06,SSE,150,10.0,14.0,66,0.00,,---,0.00,VWS V14.01,2013-07-02 15:35:00,
2013-07-02 11:40:00,89.3,76.9,30.06,SSW,199,6.0,14.0,67,0.00,,---,0.00,VWS V14.01,2013-07-02 15:40:00,
2013-07-02 11:45:00,89.6,77.6,30.06,SE,132,5.0,14.0,68,0.00,,---,0.00,VWS V14.01,2013-07-02 15:45:00,
2013-07-02 11:50:00,89.7,77.3,30.06,SSE,150,5.0,11.0,67,0.00,,---,0.00,VWS V14.01,2013-07-02 15:50:00,
2013-07-02 11:55:00,88.9,76.5,30.06,SE,132,13.0,14.0,67,0.00,,---,0.00,VWS V14.01,2013-07-02 15:55:00,
2013-07-02 12:00:00,88.3,76.8,30.06,South,187,5.0,14.0,69,0.00,,---,0.00,VWS V14.01,2013-07-02 16:00:00,
2013-07-02 12:06:00,87.9,76.5,30.07,SE,135,3.0,9.0,69,0.00,,---,0.00,VWS V14.01,2013-07-02 16:06:00,
2013-07-02 12:11:00,87.4,76.8,30.07,SSE,153,5.0,10.0,71,0.00,,---,0.00,VWS V14.01,2013-07-02 16:11:00,
2013-07-02 12:15:00,88.4,77.8,30.06,SE,124,7.0,13.0,71,0.00,,---,0.00,VWS V15.00,2013-07-02 16:15:00,
2013-07-02 12:16:00,86.9,75.9,30.07,South,191,7.0,13.0,70,0.00,,---,0.00,VWS V14.01,2013-07-02 16:16:00,
2013-07-02 12:21:00,86.6,76.5,30.07,SSE,154,8.0,9.0,72,0.00,,---,0.00,VWS V14.01,2013-07-02 16:21:00,
2013-07-02 12:26:00,86.4,76.7,30.07,SSE,162,5.0,9.0,73,0.00,,---,0.00,VWS V14.01,2013-07-02 16:26:00,
2013-07-02 12:30:00,88.8,76.9,30.06,SE,134,3.0,13.0,68,0.00,,---,0.00,VWS V15.00,2013-07-02 16:30:00,
2013-07-02 12:31:00,86.3,77.0,30.07,SE,138,3.0,12.0,74,0.00,,---,0.00,VWS V14.01,2013-07-02 16:31:00,
2013-07-02 12:36:00,86.1,76.8,30.07,South,175,5.0,13.0,74,0.00,,---,0.00,VWS V14.01,2013-07-02 16:36:00,
2013-07-02 12:41:00,86.1,76.4,30.07,SSW,200,3.0,13.0,73,0.00,,---,0.00,VWS V14.01,2013-07-02 16:41:00,
2013-07-02 12:45:00,89.7,77.3,30.06,SE,126,7.0,14.0,67,0.00,,---,0.00,VWS V15.00,2013-07-02 16:45:00,
2013-07-02 12:46:00,85.4,75.8,30.07,South,175,1.0,13.0,73,0.00,,---,0.00,VWS V14.01,2013-07-02 16:46:00,
2013-07-02 12:51:00,85.0,76.2,30.07,SW,229,1.0,4.0,75,0.00,,---,0.00,VWS V14.01,2013-07-02 16:51:00,
2013-07-02 12:56:00,84.7,75.9,30.08,ESE,106,3.0,4.0,75,0.00,,---,0.00,VWS V14.01,2013-07-02 16:56:00,
2013-07-02 13:00:00,88.3,76.8,30.06,ESE,121,4.0,14.0,69,0.00,,---,0.00,VWS V15.00,2013-07-02 17:00:00,
2013-07-02 13:01:00,84.6,76.2,30.08,SE,138,0.0,4.0,76,0.00,,---,0.00,VWS V14.01,2013-07-02 17:01:00,
2013-07-02 13:06:00,84.7,76.7,30.07,SW,227,2.0,7.0,77,0.00,,---,0.00,VWS V14.01,2013-07-02 17:06:00,
2013-07-02 13:11:00,85.0,77.8,30.08,SW,230,0.0,7.0,79,0.00,,---,0.00,VWS V14.01,2013-07-02 17:11:00,
2013-07-02 13:15:00,86.9,75.9,30.07,SE,138,5.0,13.0,70,0.00,,---,0.00,VWS V15.00,2013-07-02 17:15:00,
2013-07-02 13:16:00,85.0,77.8,30.08,NNE,15,1.0,1.0,79,0.00,,---,0.00,VWS V14.01,2013-07-02 17:16:00,
2013-07-02 13:21:00,85.1,77.9,30.08,ESE,119,0.0,5.0,79,0.00,,---,0.00,VWS V14.01,2013-07-02 17:21:00,
2013-07-02 13:26:00,85.2,78.3,30.08,South,169,2.0,5.0,80,0.00,,---,0.00,VWS V14.01,2013-07-02 17:26:00,
2013-07-02 13:30:00,86.3,77.0,30.07,SE,137,2.0,12.0,74,0.00,,---,0.00,VWS V15.00,2013-07-02 17:30:00,
2013-07-02 13:31:00,85.2,77.9,30.08,WSW,246,5.0,5.0,79,0.00,,---,0.00,VWS V14.01,2013-07-02 17:31:00,
2013-07-02 13:36:00,85.4,78.5,30.07,SSE,160,2.0,6.0,80,0.00,,---,0.00,VWS V14.01,2013-07-02 17:36:00,
2013-07-02 13:41:00,85.7,78.4,30.07,South,177,3.0,6.0,79,0.00,,---,0.00,VWS V14.01,2013-07-02 17:41:00,
2013-07-02 13:45:00,85.4,75.8,30.07,SSE,152,2.0,13.0,73,0.00,,---,0.00,VWS V15.00,2013-07-02 17:45:00,
2013-07-02 13:46:00,85.4,78.9,30.07,SSE,150,3.0,6.0,81,0.00,,---,0.00,VWS V14.01,2013-07-02 17:46:00,
2013-07-02 13:51:00,85.3,78.4,30.06,South,174,3.0,7.0,80,0.00,,---,0.00,VWS V14.01,2013-07-02 17:51:00,
2013-07-02 13:56:00,85.6,77.6,30.06,SE,142,6.0,9.0,77,0.00,,---,0.00,VWS V14.01,2013-07-02 17:56:00,
2013-07-02 14:00:00,84.6,76.2,30.08,SE,138,0.0,4.0,76,0.00,,---,0.00,VWS V15.00,2013-07-02 18:00:00,
2013-07-02 14:01:00,85.8,77.4,30.06,SSE,156,4.0,4.0,76,0.00,,---,0.00,VWS V14.01,2013-07-02 18:01:00,
2013-07-02 14:06:00,86.1,77.2,30.05,SSE,148,3.0,9.0,75,0.00,,---,0.00,VWS V14.01,2013-07-02 18:06:00,
2013-07-02 14:11:00,86.0,77.6,30.05,East,82,1.0,9.0,76,0.00,,---,0.00,VWS V14.01,2013-07-02 18:11:00,
2013-07-02 14:15:00,85.0,78.1,30.08,NE,37,0.0,7.0,80,0.00,,---,0.00,VWS V15.00,2013-07-02 18:15:00,
2013-07-02 14:16:00,86.2,77.8,30.06,South,169,5.0,5.0,76,0.00,,---,0.00,VWS V14.01,2013-07-02 18:16:00,
2013-07-02 14:21:00,86.3,78.2,30.06,South,186,3.0,8.0,77,0.00,,---,0.00,VWS V14.01,2013-07-02 18:21:00,
2013-07-02 14:26:00,86.4,77.9,30.05,SSE,147,2.0,8.0,76,0.00,,---,0.00,VWS V14.01,2013-07-02 18:26:00,
2013-07-02 14:30:00,85.2,77.9,30.08,South,190,2.0,5.0,79,0.00,,---,0.00,VWS V15.00,2013-07-02 18:30:00,
2013-07-02 14:31:00,86.6,77.3,30.05,SSE,156,2.0,6.0,74,0.00,,---,0.00,VWS V14.01,2013-07-02 18:31:00,
2013-07-02 14:36:00,86.8,77.5,30.05,ENE,77,1.0,8.0,74,0.00,,---,0.00,VWS V14.01,2013-07-02 18:36:00,
2013-07-02 14:42:00,86.7,77.0,30.05,SE,134,4.0,8.0,73,0.00,,---,0.00,VWS V14.01,2013-07-02 18:42:00,
2013-07-02 14:45:00,85.4,78.9,30.07,SE,145,5.0,6.0,81,0.00,,---,0.00,VWS V15.00,2013-07-02 18:45:00,
2013-07-02 14:47:00,86.5,76.8,30.06,SSE,157,5.0,8.0,73,0.00,,---,0.00,VWS V14.01,2013-07-02 18:47:00,
2013-07-02 14:52:00,86.3,77.0,30.06,SE,130,6.0,10.0,74,0.00,,---,0.00,VWS V14.01,2013-07-02 18:52:00,
2013-07-02 14:57:00,86.1,76.8,30.06,WSW,246,4.0,10.0,74,0.00,,---,0.00,VWS V14.01,2013-07-02 18:57:00,
2013-07-02 15:00:00,85.7,77.7,30.06,South,188,2.0,9.0,77,0.00,,---,0.00,VWS V15.00,2013-07-02 19:00:00,
2013-07-02 15:02:00,85.6,76.0,30.06,WSW,240,2.0,2.0,73,0.00,,---,0.00,VWS V14.01,2013-07-02 19:02:00,
2013-07-02 15:07:00,84.3,75.5,30.06,South,184,0.0,2.0,75,0.00,,---,0.00,VWS V14.01,2013-07-02 19:07:00,
2013-07-02 15:12:00,83.7,76.9,30.06,SW,221,0.0,2.0,80,0.00,,---,0.00,VWS V14.01,2013-07-02 19:12:00,
2013-07-02 15:15:00,86.1,77.7,30.06,SSW,199,2.0,9.0,76,0.00,,---,0.00,VWS V15.00,2013-07-02 19:15:00,
2013-07-02 15:17:00,83.3,77.2,30.06,West,259,0.0,1.0,82,0.00,,---,0.00,VWS V14.01,2013-07-02 19:17:00,
2013-07-02 15:22:00,83.3,78.0,30.05,ESE,120,0.0,3.0,84,0.01,,---,0.01,VWS V14.01,2013-07-02 19:22:00,
2013-07-02 15:27:00,83.3,78.0,30.05,South,176,1.0,3.0,84,0.01,,---,0.01,VWS V14.01,2013-07-02 19:27:00,
2013-07-02 15:30:00,86.6,77.7,30.05,SSE,150,3.0,8.0,75,0.00,,---,0.00,VWS V15.00,2013-07-02 19:30:00,
2013-07-02 15:32:00,83.4,78.1,30.05,ENE,64,2.0,4.0,84,0.01,,---,0.01,VWS V14.01,2013-07-02 19:32:00,
2013-07-02 15:37:00,84.0,77.9,30.05,SE,144,1.0,6.0,82,0.01,,---,0.01,VWS V14.01,2013-07-02 19:37:00,
2013-07-02 15:42:00,84.5,78.0,30.05,SE,139,2.0,6.0,81,0.01,,---,0.01,VWS V14.01,2013-07-02 19:42:00,
2013-07-02 15:45:00,86.5,76.8,30.06,SE,139,8.0,13.0,73,0.00,,---,0.00,VWS V15.00,2013-07-02 19:45:00,
2013-07-02 15:47:00,85.1,76.7,30.05,SSE,160,3.0,5.0,76,0.01,,---,0.01,VWS V14.01,2013-07-02 19:47:00,
2013-07-02 15:52:00,86.1,77.2,30.05,SE,141,2.0,6.0,75,0.01,,---,0.01,VWS V14.01,2013-07-02 19:52:00,
2013-07-02 15:57:00,86.6,77.7,30.05,SSE,157,8.0,8.0,75,0.01,,---,0.01,VWS V14.01,2013-07-02 19:57:00,
2013-07-02 16:00:00,85.8,75.7,30.06,WNW,298,1.0,10.0,72,0.00,,---,0.00,VWS V15.00,2013-07-02 20:00:00,
2013-07-02 16:02:00,86.7,77.0,30.05,SE,128,4.0,6.0,73,0.01,,---,0.01,VWS V14.01,2013-07-02 20:02:00,
2013-07-02 16:07:00,86.7,76.6,30.04,SE,131,5.0,11.0,72,0.01,,---,0.01,VWS V14.01,2013-07-02 20:07:00,
2013-07-02 16:12:00,86.7,76.6,30.04,East,84,4.0,11.0,72,0.01,,---,0.01,VWS V14.01,2013-07-02 20:12:00,
2013-07-02 16:15:00,83.4,77.0,30.06,West,259,0.0,3.0,81,0.00,,---,0.00,VWS V15.00,2013-07-02 20:15:00,
2013-07-02 16:17:00,86.7,76.6,30.04,ESE,107,8.0,8.0,72,0.01,,---,0.01,VWS V14.01,2013-07-02 20:17:00,
2013-07-02 16:22:00,86.6,76.5,30.03,SSE,150,3.0,11.0,72,0.01,,---,0.01,VWS V14.01,2013-07-02 20:22:00,
2013-07-02 16:27:00,86.7,76.6,30.03,ESE,108,4.0,11.0,72,0.01,,---,0.01,VWS V14.01,2013-07-02 20:27:00,
2013-07-02 16:30:00,83.3,78.0,30.05,SE,131,0.0,3.0,84,0.01,,---,0.01,VWS V15.00,2013-07-02 20:30:00,
2013-07-02 16:32:00,86.8,76.3,30.03,SSE,153,6.0,9.0,71,0.00,,---,0.01,VWS V14.01,2013-07-02 20:32:00,
2013-07-02 16:37:00,86.1,73.4,30.04,SE,140,12.0,12.0,66,0.00,,---,0.01,VWS V14.01,2013-07-02 20:37:00,
2013-07-02 16:42:00,84.1,75.3,30.04,SSW,195,3.0,12.0,75,0.02,,---,0.03,VWS V14.01,2013-07-02 20:42:00,
2013-07-02 16:45:00,85.0,77.4,30.05,SE,134,4.0,7.0,78,0.01,,---,0.01,VWS V15.00,2013-07-02 20:45:00,
2013-07-02 16:47:00,82.7,75.5,30.04,South,189,0.0,3.0,79,0.02,,---,0.03,VWS V14.01,2013-07-02 20:47:00,
2013-07-02 16:52:00,81.9,74.8,30.04,East,84,1.0,3.0,79,0.02,,---,0.03,VWS V14.01,2013-07-02 20:52:00,
2013-07-02 16:57:00,81.7,74.2,30.04,ESE,107,0.0,3.0,78,0.02,,---,0.03,VWS V14.01,2013-07-02 20:57:00,
2013-07-02 17:00:00,86.6,76.9,30.05,ESE,109,6.0,8.0,73,0.01,,---,0.01,VWS V15.00,2013-07-02 21:00:00,
2013-07-02 17:02:00,81.5,74.4,30.03,SE,139,0.0,2.0,79,0.03,,---,0.04,VWS V14.01,2013-07-02 21:02:00,
2013-07-02 17:07:00,81.4,74.3,30.03,SSE,164,2.0,3.0,79,0.03,,---,0.04,VWS V14.01,2013-07-02 21:07:00,
2013-07-02 17:12:00,81.5,75.1,30.03,ESE,104,4.0,4.0,81,0.03,,---,0.04,VWS V14.01,2013-07-02 21:12:00,
2013-07-02 17:15:00,86.7,76.6,30.04,ESE,117,5.0,11.0,72,0.01,,---,0.01,VWS V15.00,2013-07-02 21:15:00,
2013-07-02 17:17:00,81.8,76.1,30.03,ESE,115,2.0,6.0,83,0.03,,---,0.04,VWS V14.01,2013-07-02 21:17:00,
2013-07-02 17:23:00,82.0,76.7,30.03,SE,134,3.0,6.0,84,0.03,,---,0.04,VWS V14.01,2013-07-02 21:23:00,
2013-07-02 17:28:00,82.3,77.0,30.03,SE,141,0.0,6.0,84,0.03,,---,0.04,VWS V14.01,2013-07-02 21:28:00,
2013-07-02 17:30:00,86.8,76.7,30.03,SE,140,3.0,11.0,72,0.01,,---,0.01,VWS V15.00,2013-07-02 21:30:00,
2013-07-02 17:33:00,82.5,77.2,30.04,SSE,164,1.0,2.0,84,0.03,,---,0.04,VWS V14.01,2013-07-02 21:33:00,
2013-07-02 17:38:00,82.7,77.7,30.04,SSW,199,0.0,3.0,85,0.03,,---,0.04,VWS V14.01,2013-07-02 21:38:00,
2013-07-02 17:43:00,82.8,77.8,30.04,South,176,0.0,4.0,85,0.03,,---,0.04,VWS V14.01,2013-07-02 21:43:00,
2013-07-02 17:45:00,83.0,75.8,30.04,NNE,14,1.0,12.0,79,0.02,,---,0.03,VWS V15.00,2013-07-02 21:45:00,
2013-07-02 17:48:00,82.8,77.8,30.04,East,92,0.0,2.0,85,0.01,,---,0.04,VWS V14.01,2013-07-02 21:48:00,
2013-07-02 17:53:00,82.7,77.7,30.04,East,92,0.0,2.0,85,0.01,,---,0.04,VWS V14.01,2013-07-02 21:53:00,
2013-07-02 17:58:00,82.5,77.2,30.05,East,92,0.0,2.0,84,0.01,,---,0.04,VWS V14.01,2013-07-02 21:58:00,
2013-07-02 18:00:00,81.6,74.8,30.04,South,183,2.0,3.0,80,0.02,,---,0.03,VWS V15.00,2013-07-02 22:00:00,
2013-07-02 18:03:00,82.4,77.1,30.05,East,92,0.0,0.0,84,0.01,,---,0.04,VWS V14.01,2013-07-02 22:03:00,
2013-07-02 18:08:00,82.4,77.1,30.05,East,92,0.0,1.0,84,0.01,,---,0.04,VWS V14.01,2013-07-02 22:08:00,
2013-07-02 18:13:00,82.3,77.0,30.06,East,92,0.0,1.0,84,0.01,,---,0.04,VWS V14.01,2013-07-02 22:13:00,
2013-07-02 18:15:00,81.7,75.7,30.03,SSE,152,3.0,5.0,82,0.03,,---,0.04,VWS V15.00,2013-07-02 22:15:00,
2013-07-02 18:18:00,82.2,76.5,30.06,SSW,213,0.0,2.0,83,0.00,,---,0.04,VWS V14.01,2013-07-02 22:18:00,
2013-07-02 18:23:00,82.1,76.8,30.07,SSW,200,0.0,2.0,84,0.00,,---,0.04,VWS V14.01,2013-07-02 22:23:00,
2013-07-02 18:28:00,82.1,76.4,30.07,SSE,149,0.0,2.0,83,0.00,,---,0.04,VWS V14.01,2013-07-02 22:28:00,
2013-07-02 18:30:00,82.5,77.2,30.04,SSW,200,1.0,6.0,84,0.03,,---,0.04,VWS V15.00,2013-07-02 22:30:00,
2013-07-02 18:33:00,82.1,76.4,30.07,SSE,160,0.0,1.0,83,0.00,,---,0.04,VWS V14.01,2013-07-02 22:33:00,
2013-07-02 18:38:00,82.0,76.3,30.07,SSE,158,0.0,1.0,83,0.00,,---,0.04,VWS V14.01,2013-07-02 22:38:00,
2013-07-02 18:43:00,82.0,76.0,30.08,SE,133,0.0,3.0,82,0.00,,---,0.04,VWS V14.01,2013-07-02 22:43:00,
2013-07-02 18:45:00,82.8,77.8,30.04,SW,214,0.0,4.0,85,0.03,,---,0.04,VWS V15.00,2013-07-02 22:45:00,
2013-07-02 18:48:00,82.0,75.2,30.08,SSW,196,0.0,1.0,80,0.00,,---,0.04,VWS V14.01,2013-07-02 22:48:00,
2013-07-02 18:53:00,81.9,75.5,30.08,SSW,196,0.0,1.0,81,0.00,,---,0.04,VWS V14.01,2013-07-02 22:53:00,
2013-07-02 18:58:00,81.8,75.0,30.08,SSW,195,0.0,1.0,80,0.00,,---,0.04,VWS V14.01,2013-07-02 22:58:00,
2013-07-02 19:00:00,82.5,77.2,30.05,East,92,0.0,2.0,84,0.01,,---,0.04,VWS V15.00,2013-07-02 23:00:00,
2013-07-02 19:03:00,81.6,74.8,30.08,SSW,195,0.0,0.0,80,0.00,,---,0.04,VWS V14.01,2013-07-02 23:03:00,
2013-07-02 19:08:00,81.6,75.6,30.08,SSW,195,0.0,0.0,82,0.00,,---,0.04,VWS V14.01,2013-07-02 23:08:00,
2013-07-02 19:13:00,81.4,76.1,30.08,SSW,195,0.0,0.0,84,0.00,,---,0.04,VWS V14.01,2013-07-02 23:13:00,
2013-07-02 19:15:00,82.3,77.3,30.06,East,92,0.0,1.0,85,0.01,,---,0.04,VWS V15.00,2013-07-02 23:15:00,
2013-07-02 19:18:00,81.2,75.6,30.09,West,281,0.0,0.0,83,0.00,,---,0.04,VWS V14.01,2013-07-02 23:18:00,
2013-07-02 19:23:00,81.0,75.7,30.08,West,281,0.0,0.0,84,0.00,,---,0.04,VWS V14.01,2013-07-02 23:23:00,
2013-07-02 19:28:00,80.8,75.5,30.08,West,280,0.0,1.0,84,0.00,,---,0.04,VWS V14.01,2013-07-02 23:28:00,
2013-07-02 19:30:00,82.1,76.4,30.07,SE,146,0.0,2.0,83,0.00,,---,0.04,VWS V15.00,2013-07-02 23:30:00,
2013-07-02 19:33:00,80.7,75.4,30.08,West,273,0.0,3.0,84,0.00,,---,0.04,VWS V14.01,2013-07-02 23:33:00,
2013-07-02 19:34:00,80.7,76.1,30.08,West,273,0.0,3.0,86,0.00,,---,0.04,VWS V14.01,2013-07-02 23:34:00,
2013-07-02 19:39:00,80.7,76.1,30.08,West,274,0.0,3.0,86,0.00,,---,0.04,VWS V14.01,2013-07-02 23:39:00,
2013-07-02 19:44:00,80.6,76.0,30.08,West,267,2.0,3.0,86,0.00,,---,0.04,VWS V14.01,2013-07-02 23:44:00,
2013-07-02 19:45:00,82.0,75.6,30.08,South,170,0.0,4.0,81,0.00,,---,0.04,VWS V15.00,2013-07-02 23:45:00,
2013-07-02 19:49:00,80.6,76.4,30.08,West,278,0.0,2.0,87,0.00,,---,0.04,VWS V14.01,2013-07-02 23:49:00,
2013-07-02 19:54:00,80.2,75.3,30.09,NW,304,0.0,6.0,85,0.00,,---,0.04,VWS V14.01,2013-07-02 23:54:00,
2013-07-02 19:56:00,79.9,75.3,30.09,NW,304,1.0,6.0,86,0.00,,---,0.04,VWS V14.01,2013-07-02 23:56:00,
2013-07-02 20:00:00,81.7,74.9,30.08,SSW,195,0.0,1.0,80,0.00,,---,0.04,VWS V15.00,2013-07-03 00:00:00,
2013-07-02 20:02:00,79.2,74.7,30.09,NW,313,2.0,5.0,86,0.00,,---,0.04,VWS V14.01,2013-07-03 00:02:00,
2013-07-02 20:07:00,78.8,74.6,30.09,West,269,2.0,5.0,87,0.00,,---,0.04,VWS V14.01,2013-07-03 00:07:00,
2013-07-02 20:09:00,78.7,74.5,30.09,NW,312,1.0,5.0,87,0.00,,---,0.04,VWS V14.01,2013-07-03 00:09:00,
2013-07-02 20:10:00,78.6,74.4,30.09,NW,321,1.0,5.0,87,0.00,,---,0.04,VWS V14.01,2013-07-03 00:10:00,
2013-07-02 20:15:00,78.5,74.7,30.09,NW,314,0.0,5.0,88,0.00,,---,0.04,VWS V14.01,2013-07-03 00:15:00,
2013-07-02 20:20:00,78.3,74.5,30.10,West,281,1.0,3.0,88,0.00,,---,0.04,VWS V14.01,2013-07-03 00:20:00,
2013-07-02 20:23:00,78.3,74.8,30.10,NW,307,1.0,3.0,89,0.00,,---,0.04,VWS V14.01,2013-07-03 00:23:00,
2013-07-02 20:28:00,78.2,74.7,30.10,NW,306,1.0,3.0,89,0.00,,---,0.04,VWS V14.01,2013-07-03 00:28:00,
2013-07-02 20:30:00,80.7,75.4,30.08,West,280,1.0,1.0,84,0.00,,---,0.04,VWS V15.00,2013-07-03 00:30:00,
2013-07-02 20:32:00,78.1,74.6,30.10,NW,314,0.0,0.0,89,0.00,,---,0.04,VWS V14.01,2013-07-03 00:32:00,
2013-07-02 20:34:00,78.1,74.6,30.10,NW,314,0.0,2.0,89,0.00,,---,0.04,VWS V14.01,2013-07-03 00:34:00,
2013-07-02 20:39:00,77.9,74.4,30.10,NW,316,1.0,2.0,89,0.00,,---,0.04,VWS V14.01,2013-07-03 00:39:00,
2013-07-02 20:44:00,77.8,74.0,30.10,NW,310,3.0,3.0,88,0.00,,---,0.04,VWS V14.01,2013-07-03 00:44:00,
2013-07-02 20:45:00,80.6,76.4,30.08,NW,307,1.0,3.0,87,0.00,,---,0.04,VWS V15.00,2013-07-03 00:45:00,
2013-07-02 20:49:00,77.7,73.9,30.10,NW,318,0.0,1.0,88,0.00,,---,0.04,VWS V14.01,2013-07-03 00:49:00,
2013-07-02 20:54:00,77.7,74.2,30.10,NW,308,4.0,5.0,89,0.00,,---,0.04,VWS V14.01,2013-07-03 00:54:00,
2013-07-02 20:59:00,77.6,74.1,30.10,NW,326,0.0,5.0,89,0.00,,---,0.04,VWS V14.01,2013-07-03 00:59:00,
2013-07-02 21:00:00,79.2,74.7,30.09,NW,319,1.0,6.0,86,0.00,,---,0.04,VWS V15.00,2013-07-03 01:00:00,
2013-07-02 21:03:00,77.4,73.9,30.11,NNW,342,1.0,4.0,89,0.00,,---,0.04,VWS V14.01,2013-07-03 01:03:00,
2013-07-02 21:04:00,77.5,74.0,30.11,NW,316,1.0,4.0,89,0.00,,---,0.04,VWS V14.01,2013-07-03 01:04:00,
2013-07-02 21:10:00,77.3,74.1,30.11,NNW,332,0.0,4.0,90,0.00,,---,0.04,VWS V14.01,2013-07-03 01:10:00,
2013-07-02 21:12:00,77.3,74.1,30.11,NNW,332,0.0,4.0,90,0.00,,---,0.04,VWS V14.01,2013-07-03 01:12:00,
2013-07-02 21:15:00,78.5,74.7,30.09,West,272,0.0,5.0,88,0.00,,---,0.04,VWS V15.00,2013-07-03 01:15:00,
2013-07-02 21:17:00,77.2,74.0,30.11,NNW,327,0.0,1.0,90,0.00,,---,0.04,VWS V14.01,2013-07-03 01:17:00,
2013-07-02 21:22:00,77.2,74.0,30.11,NW,316,0.0,3.0,90,0.00,,---,0.04,VWS V14.01,2013-07-03 01:22:00,
2013-07-02 21:27:00,77.1,73.9,30.12,NW,316,0.0,3.0,90,0.00,,---,0.04,VWS V14.01,2013-07-03 01:27:00,
2013-07-02 21:30:00,78.1,74.6,30.10,NW,314,0.0,3.0,89,0.00,,---,0.04,VWS V15.00,2013-07-03 01:30:00,
2013-07-02 21:32:00,77.1,74.3,30.12,NW,316,0.0,0.0,91,0.00,,---,0.04,VWS V14.01,2013-07-03 01:32:00,
2013-07-02 21:37:00,77.0,74.2,30.12,NW,316,0.0,0.0,91,0.00,,---,0.04,VWS V14.01,2013-07-03 01:37:00,
2013-07-02 21:42:00,77.0,74.2,30.12,NW,316,0.0,1.0,91,0.00,,---,0.04,VWS V14.01,2013-07-03 01:42:00,
2013-07-02 21:45:00,77.8,74.0,30.10,NW,318,0.0,3.0,88,0.00,,---,0.04,VWS V15.00,2013-07-03 01:45:00,
2013-07-02 21:47:00,76.9,74.1,30.12,NW,316,0.0,0.0,91,0.00,,---,0.04,VWS V14.01,2013-07-03 01:47:00,
2013-07-02 21:49:00,76.8,74.3,30.12,NW,316,0.0,0.0,92,0.00,,---,0.04,VWS V14.01,2013-07-03 01:49:00,
2013-07-02 21:50:00,76.8,74.0,30.12,NW,316,0.0,0.0,91,0.00,,---,0.04,VWS V14.01,2013-07-03 01:50:00,
2013-07-02 21:56:00,76.7,74.2,30.12,NW,316,0.0,0.0,92,0.00,,---,0.04,VWS V14.01,2013-07-03 01:56:00,
2013-07-02 22:00:00,77.5,74.0,30.10,WNW,300,1.0,5.0,89,0.00,,---,0.04,VWS V15.00,2013-07-03 02:00:00,
2013-07-02 22:01:00,76.7,74.2,30.12,NW,316,0.0,0.0,92,0.00,,---,0.04,VWS V14.01,2013-07-03 02:01:00,
2013-07-02 22:06:00,76.7,74.2,30.12,NW,316,0.0,0.0,92,0.00,,---,0.04,VWS V14.01,2013-07-03 02:06:00,
2013-07-02 22:11:00,76.8,74.3,30.12,NW,316,0.0,0.0,92,0.00,,---,0.04,VWS V14.01,2013-07-03 02:11:00,
2013-07-02 22:15:00,77.2,74.4,30.11,NNW,327,0.0,4.0,91,0.00,,---,0.04,VWS V15.00,2013-07-03 02:15:00,
2013-07-02 22:16:00,76.7,74.2,30.12,NW,316,0.0,0.0,92,0.00,,---,0.04,VWS V14.01,2013-07-03 02:16:00,
2013-07-02 22:22:00,76.7,74.2,30.12,NW,316,0.0,0.0,92,0.00,,---,0.04,VWS V14.01,2013-07-03 02:22:00,
2013-07-02 22:27:00,76.7,74.2,30.12,NW,316,0.0,0.0,92,0.00,,---,0.04,VWS V14.01,2013-07-03 02:27:00,
2013-07-02 22:30:00,77.1,74.3,30.11,NW,316,0.0,3.0,91,0.00,,---,0.04,VWS V15.00,2013-07-03 02:30:00,
2013-07-02 22:32:00,76.9,74.4,30.12,East,89,0.0,1.0,92,0.00,,---,0.04,VWS V14.01,2013-07-03 02:32:00,
2013-07-02 22:37:00,76.9,74.1,30.12,ESE,115,0.0,3.0,91,0.00,,---,0.04,VWS V14.01,2013-07-03 02:37:00,
2013-07-02 22:42:00,76.9,74.1,30.12,ESE,115,0.0,3.0,91,0.00,,---,0.04,VWS V14.01,2013-07-03 02:42:00,
2013-07-02 22:45:00,76.9,74.4,30.12,NW,316,0.0,1.0,92,0.00,,---,0.04,VWS V15.00,2013-07-03 02:45:00,
2013-07-02 22:47:00,77.0,74.2,30.12,ESE,115,0.0,0.0,91,0.00,,---,0.04,VWS V14.01,2013-07-03 02:47:00,
2013-07-02 22:52:00,77.0,74.2,30.12,East,96,1.0,1.0,91,0.00,,---,0.04,VWS V14.01,2013-07-03 02:52:00,
2013-07-02 22:58:00,76.9,74.1,30.12,East,96,0.0,1.0,91,0.00,,---,0.04,VWS V14.01,2013-07-03 02:58:00,
2013-07-02 23:00:00,76.7,74.2,30.12,NW,316,0.0,0.0,92,0.00,,---,0.04,VWS V15.00,2013-07-03 03:00:00,
2013-07-02 23:03:00,76.8,74.0,30.11,East,96,0.0,0.0,91,0.00,,---,0.04,VWS V14.01,2013-07-03 03:03:00,
2013-07-02 23:04:00,76.7,73.9,30.12,East,96,0.0,0.0,91,0.00,,---,0.04,VWS V14.01,2013-07-03 03:04:00,
2013-07-02 23:09:00,76.6,74.1,30.12,East,96,0.0,1.0,92,0.00,,---,0.04,VWS V14.01,2013-07-03 03:09:00,
2013-07-02 23:14:00,76.6,74.1,30.12,East,96,0.0,1.0,92,0.00,,---,0.04,VWS V14.01,2013-07-03 03:14:00,
2013-07-02 23:15:00,76.7,74.2,30.12,NW,316,0.0,0.0,92,0.00,,---,0.04,VWS V15.00,2013-07-03 03:15:00,
2013-07-02 23:19:00,76.5,74.0,30.12,East,96,0.0,0.0,92,0.00,,---,0.04,VWS V14.01,2013-07-03 03:19:00,
2013-07-02 23:25:00,76.4,73.9,30.12,East,96,0.0,0.0,92,0.00,,---,0.04,VWS V14.01,2013-07-03 03:25:00,
2013-07-02 23:27:00,76.3,74.1,30.12,East,96,0.0,0.0,93,0.00,,---,0.04,VWS V14.01,2013-07-03 03:27:00,
2013-07-02 23:30:00,76.9,74.4,30.12,East,89,0.0,1.0,92,0.00,,---,0.04,VWS V15.00,2013-07-03 03:30:00,
2013-07-02 23:34:00,76.5,74.3,30.12,East,96,0.0,1.0,93,0.00,,---,0.04,VWS V14.01,2013-07-03 03:34:00,
2013-07-02 23:37:00,76.5,74.3,30.12,East,96,1.0,1.0,93,0.00,,---,0.04,VWS V14.01,2013-07-03 03:37:00,
2013-07-02 23:42:00,76.6,74.4,30.12,East,98,1.0,2.0,93,0.00,,---,0.04,VWS V14.01,2013-07-03 03:42:00,
2013-07-02 23:43:00,76.6,74.4,30.12,East,100,1.0,2.0,93,0.00,,---,0.04,VWS V14.01,2013-07-03 03:43:00,
2013-07-02 23:45:00,77.0,74.2,30.12,ESE,115,0.0,3.0,91,0.00,,---,0.04,VWS V15.00,2013-07-03 03:45:00,
2013-07-02 23:48:00,76.7,74.5,30.11,East,100,1.0,1.0,93,0.00,,---,0.04,VWS V14.01,2013-07-03 03:48:00,
2013-07-02 23:52:00,76.6,74.4,30.11,East,100,0.0,1.0,93,0.00,,---,0.04,VWS V14.01,2013-07-03 03:52:00,
2013-07-02 23:58:00,76.6,74.4,30.11,East,100,0.0,1.0,93,0.00,,---,0.04,VWS V14.01,2013-07-03 03:58:00,